Location: Foots Cray
(51.4000°N, 0.1167°E)
Time: 00:44:34
(UTC+00:00)

Cosmos 2227 Rocket - Pass Details

Date: 15 May 2026
Orbit: 838 x 844 km, 71.0° (Epoch: 9 June)

Event Time Altitude Azimuth Distance (km) Brightness Sun altitude
Exits shadow 22:55:59 12° 109° (ESE) 2,312 4.2 -18.3°
Maximum altitude 22:57:12 13° 96° (E) 2,259 4.2 -18.4°
Drops below altitude 10° 22:59:39 10° 70° (ENE) 2,471 4.7 -18.5°
Sets 23:03:30 0° 44° (NE) 3,413 5.8 -18.6°
